Regional Weather Roundup
Issued by NWS Nashville, TN

Home | Current Version | Previous Version | Text Only | Print | Product List | Glossary On
Versions: 1 2 3 4 5 6 7 8 9 10 11 12 13 14 15 16 17 18 19 20 21 22 23 24 25 26 27 28 29 30 31 32 33 34 35 36 37 38 39 40 41 42 43 44 45 46 47 48 49 50
000
ASUS44 KOHX 260015
RWROHX
MIDDLE TENNESSEE HOURLY WEATHER ROUNDUP
NATIONAL WEATHER SERVICE NASHVILLE TN
600 PM CST TUE NOV 25 2014

NOTE: "FAIR" INDICATES FEW OR NO CLOUDS BELOW 12,000 FEET WITH
NO SIGNIFICANT WEATHER AND/OR OBSTRUCTIONS TO VISIBILITY.

* THESE REPORTS ARE NOT UNDER NWS QUALITY CONTROL AND MAY NOT
  REPORT WEATHER SUCH AS PRECIPITATION AND FOG.


TNZ005>011-023>034-057-059-062>066-078-080-260100
...NORTHERN MIDDLE TENNESSEE...

CITY           SKY/WX    TMP DP  RH WIND       PRES   REMARKS
CLARKSVILLE    CLOUDY    39  28  64 NW5       30.15R
CROSSVILLE     CLOUDY    47  27  45 NW7       30.07S
GALLATIN         N/A     41  28  60 CALM      30.15R
DICKSON        CLOUDY    41  25  52 NW3       30.14R
LEBANON        CLOUDY    42  27  55 N6        30.12R
LIVINGSTON     CLOUDY    57  24  28 N3        30.10R
NASHVILLE      CLOUDY    44  26  49 N5        30.15R
WEST NASHVILLE   N/A     41  27  56 N3        30.15R
PORTLAND         N/A     39  27  60 CALM      30.12R
SMYRNA         CLOUDY    43  28  55 N6        30.16R
SPARTA         CLEAR     45  32  61 NW3       30.11R
$$
TNZ056-058-060-061-075>077-079-093>097-260100
...SOUTHERN MIDDLE TENNESSEE...

CITY           SKY/WX    TMP DP  RH WIND       PRES   REMARKS
COLUMBIA       CLEAR     45  27  49 CALM      30.14R
LEWISBURG      CLOUDY    45  28  51 NW3       30.13R
MCMINNVILLE    CLEAR     45  30  57 CALM      30.12R
MURFREESBORO   CLOUDY    45  27  49 N6        30.14R
SHELBYVILLE    CLEAR     45  32  61 N10       30.14R
TULLAHOMA      CLEAR     45  28  53 N7        30.13R
WINCHESTER     CLEAR     46  30  53 N3        30.12R
$$


...KEY TO REMARKS...
VSB - VISIBILITY IN MILES
WCI - WIND CHILL INDEX
HX  - HEAT INDEX



USA.gov is the U.S. government's official web portal to all federal, state and local government web resources and services.